Weather History for Billings, MT

Change the Weather History Date:

Wednesday, March 6, 2013

  Actual Average Record
Temperature  
Mean Temperature 25 °F 35 °F  
Max Temperature 34 °F 46 °F 68 °F (1987)
Min Temperature 16 °F 24 °F -19 °F (1951)
Degree Days  
Heating Degree Days 40 30  
Month to date heating degree days 188 184  
Since 1 July heating degree days 4749 5149  
Cooling Degree Days 0 0  
Month to date cooling degree days 0 0  
Year to date cooling degree days 0 0  
Moisture  
Dew Point 20 °F    
Average Humidity 78    
Maximum Humidity 92    
Minimum Humidity 64    
Precipitation  
Precipitation 0.00 in 0.03 in 0.30 in (1969)
Month to date precipitation 0.17 0.15  
Year to date precipitation 1.05 1.11  
Snow  
Snow 0.00 in 0.30 in 3.60 in (1969)
Month to date snowfall 1.7 1.8  
Since 1 July snowfall 33.8 36.3  
Snow Depth T in    
Sea Level Pressure  
Sea Level Pressure 29.93 in    
Wind  
Wind Speed 6 mph (NE)    
Max Wind Speed 12 mph    
Max Gust Speed 14 mph    
Visibility 10 miles    
Events Fog    
T = Trace of Precipitation, MM = Missing Value Source: NWS Daily Summary

Daily Weather History Graph

Daily Weather History Graph

Search for Another Location

Airport:

Trip Planner

Search our weather history database for the weather conditions in past years. The results will help you decide how hot, cold, wet, or windy it might be!

Date:

Astronomy

Mar. 06, 2013 Rise Set
Actual Time 6:43 AM MST 6:08 PM MST
Civil Twilight 6:13 AM MST 6:38 PM MST
Nautical Twilight 5:38 AM MST 7:12 PM MST
Astronomical Twilight 5:04 AM MST 7:47 PM MST
Moon 3:08 AM MST (3/6) 12:40 PM MST (3/6)
Length of Visible Light 12h 24m
Length of Day
11h 25m
Waning Crescent, 29% of the Moon is Illuminated
Mar 6
Waning Crescent
Mar 11
New
Mar 19
First Quarter
Mar 27
Full
Apr 2
Last Quarter

Hourly Weather History & Observations

Time (MST) Temp. Windchill Dew Point Humidity Pressure Visibility Wind Dir Wind Speed Gust Speed Precip Events Conditions
12:53 AM 21.9 °F 17.2 °F 17.1 °F 82% 30.12 in 10.0 mi North 3.5 mph - N/A   Clear
1:53 AM 19.9 °F 11.1 °F 16.0 °F 85% 30.12 in 10.0 mi NNW 6.9 mph - N/A   Clear
2:53 AM 18.0 °F 8.7 °F 15.1 °F 88% 30.10 in 10.0 mi NW 6.9 mph - N/A   Clear
3:53 AM 17.1 °F - 12.9 °F 84% 30.09 in 10.0 mi Calm Calm - N/A   Clear
4:53 AM 17.6 °F - 12.2 °F 79% 29.95 in 10.0 mi Calm Calm - N/A   Clear
5:53 AM 19.9 °F - 15.1 °F 81% 30.07 in 10.0 mi Calm Calm - N/A   Clear
6:53 AM 19.0 °F 13.9 °F 16.0 °F 88% 30.06 in 10.0 mi South 3.5 mph - N/A Fog Partly Cloudy
7:53 AM 19.0 °F - 17.1 °F 92% 30.05 in 10.0 mi Calm Calm - N/A Fog Partly Cloudy
8:53 AM 21.9 °F 15.7 °F 18.0 °F 85% 30.03 in 10.0 mi SSW 4.6 mph - N/A   Partly Cloudy
9:53 AM 26.1 °F 19.4 °F 19.0 °F 75% 29.98 in 10.0 mi NNE 5.8 mph - N/A   Clear
10:53 AM 27.0 °F 21.6 °F 19.9 °F 75% 29.95 in 10.0 mi ENE 4.6 mph - N/A   Scattered Clouds
11:53 AM 28.9 °F 21.1 °F 21.0 °F 72% 29.91 in 10.0 mi ENE 8.1 mph - N/A   Scattered Clouds
12:53 PM 30.9 °F 26.2 °F 21.0 °F 67% 29.86 in 10.0 mi ENE 4.6 mph - N/A   Mostly Cloudy
1:53 PM 33.1 °F 25.5 °F 23.0 °F 66% 29.81 in 10.0 mi NE 9.2 mph - N/A   Mostly Cloudy
2:53 PM 34.0 °F 27.2 °F 24.1 °F 67% 29.81 in 10.0 mi East 8.1 mph - N/A   Mostly Cloudy
3:53 PM 34.0 °F 28.0 °F 23.0 °F 64% 29.81 in 10.0 mi NE 6.9 mph - N/A   Mostly Cloudy
4:53 PM 34.0 °F 27.2 °F 23.0 °F 64% 29.82 in 10.0 mi NE 8.1 mph - N/A   Mostly Cloudy
5:53 PM 33.1 °F 24.9 °F 23.0 °F 66% 29.80 in 10.0 mi ENE 10.4 mph - N/A   Mostly Cloudy
6:53 PM 30.9 °F 27.5 °F 23.0 °F 72% 29.83 in 10.0 mi North 3.5 mph - N/A   Partly Cloudy
7:53 PM 30.0 °F 23.2 °F 21.9 °F 72% 29.82 in 10.0 mi NE 6.9 mph - N/A   Clear
8:53 PM 27.0 °F 17.3 °F 23.0 °F 85% 29.84 in 10.0 mi North 10.4 mph - N/A   Scattered Clouds
9:53 PM 27.0 °F 19.5 °F 24.1 °F 89% 29.85 in 10.0 mi NNW 6.9 mph - N/A   Mostly Cloudy
10:53 PM 28.0 °F 19.3 °F 24.1 °F 85% 29.85 in 10.0 mi SW 9.2 mph - N/A   Scattered Clouds
11:53 PM 28.0 °F 20.8 °F 24.1 °F 85% 29.83 in 10.0 mi SSW 6.9 mph - N/A   Mostly Cloudy